Weather History for Stuttgart, AR

Change the Weather History Date:

Monday, January 20, 2014

  Actual Average Record
Temperature  
Mean Temperature 52 °F -  
Max Temperature 68 °F 47 °F 68 °F (2014)
Min Temperature 35 °F 33 °F 21 °F (2008)
Degree Days  
Heating Degree Days 14    
Growing Degree Days 2 (Base 50)    
Moisture  
Dew Point 31 °F    
Average Humidity 50    
Maximum Humidity 65    
Minimum Humidity 30    
Precipitation  
Precipitation 0.00 in - - ()
Sea Level Pressure  
Sea Level Pressure 29.95 in    
Wind  
Wind Speed 10 mph (SW)    
Max Wind Speed 18 mph    
Max Gust Speed 24 mph    
Visibility 10 miles    
Events      
Averages and records for this station are not official NWS values.
T = Trace of Precipitation, MM = Missing Value Source: NWS Daily Summary

Daily Weather History Graph

Daily Weather History Graph

Search for Another Location

Airport:

Trip Planner

Search our weather history database for the weather conditions in past years. The results will help you decide how hot, cold, wet, or windy it might be!

Date:

Astronomy

Jan. 20, 2014 Rise Set
Actual Time 7:11 AM CST 5:23 PM CST
Civil Twilight 6:44 AM CST 5:50 PM CST
Nautical Twilight 6:13 AM CST 6:21 PM CST
Astronomical Twilight 5:43 AM CST 6:51 PM CST
Moon 9:45 PM CST (1/20) 9:23 AM CST (1/20)
Length of Visible Light 11h 06m
Length of Day
10h 12m
Waning Gibbous, 82% of the Moon is Illuminated
Jan 20
Waning Gibbous
Jan 23
Last Quarter
Jan 30
New
Feb 6
First Quarter
Feb 14
Full

Hourly Weather History & Observations

Time (CST) Temp. Windchill Dew Point Humidity Pressure Visibility Wind Dir Wind Speed Gust Speed Precip Events Conditions
12:15 AM 44.6 °F 39.2 °F 26.6 °F 49% 30.03 in 10.0 mi SW 10.4 mph - N/A   Clear
12:35 AM 44.6 °F 39.7 °F 26.6 °F 49% 30.02 in 10.0 mi WSW 9.2 mph - N/A   Clear
12:55 AM 42.8 °F 38.6 °F 24.8 °F 49% 30.02 in 10.0 mi SW 6.9 mph - N/A   Clear
1:15 AM 41.0 °F 36.4 °F 26.6 °F 57% 30.02 in 10.0 mi SW 6.9 mph - N/A   Clear
1:35 AM 39.2 °F 35.9 °F 24.8 °F 56% 30.02 in 10.0 mi SW 4.6 mph - N/A   Clear
1:55 AM 39.2 °F 35.9 °F 24.8 °F 56% 30.02 in 10.0 mi SW 4.6 mph - N/A   Clear
2:15 AM 37.4 °F 31.4 °F 24.8 °F 60% 30.02 in 10.0 mi South 8.1 mph - N/A   Clear
2:35 AM 39.2 °F 35.0 °F 26.6 °F 61% 30.02 in 10.0 mi South 5.8 mph - N/A   Clear
2:55 AM 35.6 °F 31.7 °F 24.8 °F 65% 30.02 in 10.0 mi SSW 4.6 mph - N/A   Clear
3:15 AM 37.4 °F 28.9 °F 26.6 °F 65% 30.00 in 10.0 mi South 13.8 mph - N/A   Clear
3:35 AM 37.4 °F 29.3 °F 26.6 °F 65% 29.99 in 10.0 mi South 12.7 mph - N/A   Clear
3:55 AM 37.4 °F 29.8 °F 26.6 °F 65% 29.98 in 10.0 mi South 11.5 mph - N/A   Clear
4:15 AM 37.4 °F 31.4 °F 26.6 °F 65% 29.98 in 10.0 mi South 8.1 mph - N/A   Clear
4:35 AM 37.4 °F 32.8 °F 24.8 °F 60% 29.98 in 10.0 mi South 5.8 mph - N/A   Clear
4:55 AM 37.4 °F 34.9 °F 24.8 °F 60% 29.98 in 10.0 mi South 3.5 mph - N/A   Clear
5:15 AM 37.4 °F 32.1 °F 24.8 °F 60% 29.98 in 10.0 mi South 6.9 mph - N/A   Clear
5:35 AM 37.4 °F 30.8 °F 24.8 °F 60% 29.98 in 10.0 mi South 9.2 mph - N/A   Clear
5:55 AM 37.4 °F 30.8 °F 24.8 °F 60% 29.98 in 10.0 mi SSW 9.2 mph - N/A   Clear
6:15 AM 35.6 °F 28.6 °F 24.8 °F 65% 29.98 in 10.0 mi SSW 9.2 mph - N/A   Clear
6:35 AM 35.6 °F 27.5 °F 24.8 °F 65% 29.98 in 10.0 mi SSW 11.5 mph - N/A   Clear
6:55 AM 35.6 °F 28.6 °F 24.8 °F 65% 29.99 in 10.0 mi SSW 9.2 mph - N/A   Clear
7:15 AM 35.6 °F 29.2 °F 24.8 °F 65% 29.99 in 10.0 mi South 8.1 mph - N/A   Clear
7:35 AM 35.6 °F 29.9 °F 24.8 °F 65% 29.99 in 10.0 mi South 6.9 mph - N/A   Clear
7:55 AM 37.4 °F 31.4 °F 26.6 °F 65% 29.99 in 10.0 mi South 8.1 mph - N/A   Clear
8:15 AM 39.2 °F 34.2 °F 28.4 °F 65% 29.99 in 10.0 mi South 6.9 mph - N/A   Clear
8:35 AM 44.6 °F 40.2 °F 28.4 °F 53% 29.99 in 10.0 mi South 8.1 mph - N/A   Clear
8:55 AM 46.4 °F 41.9 °F 28.4 °F 50% 30.00 in 10.0 mi SSW 9.2 mph - N/A   Clear
9:15 AM 48.2 °F - 28.4 °F 46% 30.00 in 10.0 mi SSW 11.5 mph - N/A   Clear
9:35 AM 50.0 °F - 28.4 °F 43% 30.01 in 10.0 mi SSW 11.5 mph - N/A   Clear
9:55 AM 51.8 °F - 28.4 °F 41% 30.01 in 10.0 mi SW 13.8 mph - N/A   Clear
10:15 AM 53.6 °F - 28.4 °F 38% 30.01 in 10.0 mi SW 10.4 mph - N/A   Clear
10:35 AM 55.4 °F - 30.2 °F 38% 30.01 in 10.0 mi SW 12.7 mph - N/A   Clear
10:55 AM 55.4 °F - 30.2 °F 38% 30.00 in 10.0 mi SSW 11.5 mph - N/A   Clear
11:15 AM 55.4 °F - 30.2 °F 38% 29.99 in 10.0 mi SSW 13.8 mph - N/A   Clear
11:35 AM 57.2 °F - 32.0 °F 38% 29.98 in 10.0 mi SSW 11.5 mph - N/A   Clear
11:55 AM 60.8 °F - 33.8 °F 36% 29.96 in 10.0 mi SW 11.5 mph - N/A   Clear
12:15 PM 62.6 °F - 33.8 °F 34% 29.94 in 10.0 mi WSW 12.7 mph - N/A   Clear
12:35 PM 62.6 °F - 33.8 °F 34% 29.92 in 10.0 mi SW 11.5 mph - N/A   Clear
12:55 PM 64.4 °F - 33.8 °F 32% 29.90 in 10.0 mi SW 10.4 mph - N/A   Clear
1:15 PM 64.4 °F - 35.6 °F 34% 29.89 in 10.0 mi SW 12.7 mph - N/A   Clear
1:35 PM 66.2 °F - 33.8 °F 30% 29.88 in 10.0 mi SW 16.1 mph - N/A   Clear
1:55 PM 66.2 °F - 35.6 °F 32% 29.87 in 10.0 mi SSW 11.5 mph - N/A   Clear
2:15 PM 66.2 °F - 35.6 °F 32% 29.87 in 10.0 mi SSW 10.4 mph - N/A   Clear
2:35 PM 68.0 °F - 35.6 °F 30% 29.86 in 10.0 mi SSW 8.1 mph - N/A   Clear
2:55 PM 68.0 °F - 35.6 °F 30% 29.85 in 10.0 mi South 10.4 mph - N/A   Clear
3:15 PM 68.0 °F - 35.6 °F 30% 29.84 in 10.0 mi SSW 11.5 mph - N/A   Clear
3:35 PM 68.0 °F - 37.4 °F 33% 29.84 in 10.0 mi SSW 11.5 mph - N/A   Clear
3:55 PM 68.0 °F - 39.2 °F 35% 29.84 in 10.0 mi South 9.2 mph - N/A   Clear
4:15 PM 66.2 °F - 39.2 °F 37% 29.84 in 10.0 mi South 9.2 mph - N/A   Clear
4:35 PM 64.4 °F - 39.2 °F 40% 29.84 in 10.0 mi South 10.4 mph - N/A   Clear
4:55 PM 62.6 °F - 39.2 °F 42% 29.85 in 10.0 mi SW 8.1 mph - N/A   Clear
5:15 PM 60.8 °F - 39.2 °F 45% 29.86 in 10.0 mi SW 10.4 mph - N/A   Clear
5:35 PM 55.4 °F - 37.4 °F 51% 29.87 in 10.0 mi WSW 8.1 mph - N/A   Clear
5:55 PM 57.2 °F - 37.4 °F 48% 29.87 in 10.0 mi WSW 6.9 mph - N/A   Clear
6:15 PM 53.6 °F - 37.4 °F 54% 29.88 in 10.0 mi WSW 6.9 mph - N/A   Clear
6:35 PM 53.6 °F - 37.4 °F 54% 29.89 in 10.0 mi SW 5.8 mph - N/A   Clear
6:55 PM 53.6 °F - 39.2 °F 58% 29.90 in 10.0 mi SW 6.9 mph - N/A   Clear
7:15 PM 51.8 °F - 37.4 °F 58% 29.90 in 10.0 mi SW 9.2 mph - N/A   Clear
7:35 PM 51.8 °F - 37.4 °F 58% 29.90 in 10.0 mi WSW 10.4 mph - N/A   Clear
7:55 PM 53.6 °F - 37.4 °F 54% 29.90 in 10.0 mi West 11.5 mph - N/A   Clear
8:15 PM 53.6 °F - 39.2 °F 58% 29.90 in 10.0 mi West 12.7 mph - N/A   Clear
8:35 PM 55.4 °F - 39.2 °F 54% 29.91 in 10.0 mi West 16.1 mph - N/A   Clear
8:55 PM 55.4 °F - 37.4 °F 51% 29.92 in 10.0 mi NW 15.0 mph - N/A   Clear
9:15 PM 51.8 °F - 37.4 °F 58% 29.94 in 10.0 mi NNW 12.7 mph - N/A   Clear
9:35 PM 48.2 °F - 35.6 °F 62% 29.95 in 10.0 mi NW 11.5 mph - N/A   Clear
9:55 PM 48.2 °F - 35.6 °F 62% 29.96 in 10.0 mi NW 10.4 mph - N/A   Clear
10:15 PM 48.2 °F - 35.6 °F 62% 29.97 in 10.0 mi NW 15.0 mph - N/A   Clear
10:35 PM 50.0 °F - 33.8 °F 54% 29.97 in 10.0 mi NNW 18.4 mph - N/A   Clear
10:55 PM 51.8 °F - 30.2 °F 44% 29.99 in 10.0 mi NNW 10.4 mph - N/A   Clear
11:15 PM 46.4 °F 40.7 °F 30.2 °F 53% 30.00 in 10.0 mi NNW 12.7 mph - N/A   Clear
11:35 PM 48.2 °F - 30.2 °F 50% 30.00 in 10.0 mi NW 17.3 mph - N/A   Clear
11:55 PM 48.2 °F - 30.2 °F 50% 30.01 in 10.0 mi NNW 18.4 mph 24.2 mph N/A   Clear